Time,TemperatureF,DewpointF,PressureIn,WindDirection,WindDirectionDegrees,WindSpeedMPH,WindSpeedGustMPH,Humidity,HourlyPrecipIn,Conditions,Clouds,dailyrainin,SoftwareType,DateUTC
2013-08-04 00:00:00,70.2,66.3,0.00,North,0,0.0,0.0,87,0.00,,,0.00,WUHU21623XXSP,2013-08-04 04:00:00,
2013-08-04 00:05:00,70.0,66.1,0.00,North,0,0.0,0.0,87,0.00,,,0.00,WUHU21623XXSP,2013-08-04 04:05:00,
2013-08-04 00:10:00,70.0,65.9,0.00,North,0,0.0,0.0,87,0.00,,,0.00,WUHU21623XXSP,2013-08-04 04:10:00,
2013-08-04 00:15:00,70.0,65.9,0.00,North,0,0.0,0.0,87,0.00,,,0.00,WUHU21623XXSP,2013-08-04 04:15:00,
2013-08-04 00:20:00,70.0,65.9,0.00,North,0,0.0,0.0,87,0.00,,,0.00,WUHU21623XXSP,2013-08-04 04:20:00,
2013-08-04 00:25:00,69.6,65.5,0.00,North,0,0.0,0.0,87,0.00,,,0.00,WUHU21623XXSP,2013-08-04 04:25:00,
2013-08-04 00:30:00,69.6,65.5,0.00,North,0,0.0,0.0,88,0.00,,,0.00,WUHU21623XXSP,2013-08-04 04:30:00,
2013-08-04 00:35:00,69.6,65.9,0.00,North,0,0.0,0.0,88,0.00,,,0.00,WUHU21623XXSP,2013-08-04 04:35:00,
2013-08-04 00:40:00,69.6,65.9,0.00,North,0,0.0,0.0,88,0.00,,,0.00,WUHU21623XXSP,2013-08-04 04:40:00,
2013-08-04 00:45:00,69.6,65.9,0.00,North,0,0.0,0.0,88,0.00,,,0.00,WUHU21623XXSP,2013-08-04 04:45:00,
2013-08-04 00:50:00,69.6,65.9,0.00,North,0,0.0,0.0,88,0.00,,,0.00,WUHU21623XXSP,2013-08-04 04:50:00,
2013-08-04 00:55:00,69.6,65.9,0.00,North,0,0.0,0.0,88,0.00,,,0.00,WUHU21623XXSP,2013-08-04 04:55:00,
2013-08-04 01:00:00,69.4,65.9,0.00,North,0,0.0,0.0,88,0.00,,,0.00,WUHU21623XXSP,2013-08-04 05:00:00,
2013-08-04 01:05:00,69.4,65.7,0.00,North,0,0.0,0.0,88,0.00,,,0.00,WUHU21623XXSP,2013-08-04 05:05:00,
2013-08-04 01:10:00,69.3,65.5,0.00,North,0,0.0,0.0,88,0.00,,,0.00,WUHU21623XXSP,2013-08-04 05:10:00,
2013-08-04 01:15:00,69.1,65.5,0.00,North,0,0.0,0.0,88,0.00,,,0.00,WUHU21623XXSP,2013-08-04 05:15:00,
2013-08-04 01:20:00,69.1,65.3,0.00,North,0,0.0,0.0,88,0.00,,,0.00,WUHU21623XXSP,2013-08-04 05:20:00,
2013-08-04 01:25:00,69.1,65.3,0.00,North,0,0.0,0.0,88,0.00,,,0.00,WUHU21623XXSP,2013-08-04 05:25:00,
2013-08-04 01:30:00,68.9,65.2,0.00,North,0,0.0,0.0,88,0.00,,,0.00,WUHU21623XXSP,2013-08-04 05:30:00,
2013-08-04 01:35:00,68.7,65.0,0.00,North,0,0.0,0.0,88,0.00,,,0.00,WUHU21623XXSP,2013-08-04 05:35:00,
2013-08-04 01:40:00,68.7,65.0,0.00,North,0,0.0,0.0,88,0.00,,,0.00,WUHU21623XXSP,2013-08-04 05:40:00,
2013-08-04 01:45:00,68.7,65.0,0.00,North,0,0.0,0.0,88,0.00,,,0.00,WUHU21623XXSP,2013-08-04 05:45:00,
2013-08-04 01:50:00,68.5,64.8,0.00,North,0,0.0,0.0,88,0.00,,,0.00,WUHU21623XXSP,2013-08-04 05:50:00,
2013-08-04 01:55:00,68.5,64.8,0.00,North,0,0.0,0.0,88,0.00,,,0.00,WUHU21623XXSP,2013-08-04 05:55:00,
2013-08-04 02:00:00,68.5,64.8,0.00,North,0,0.0,0.0,88,0.00,,,0.00,WUHU21623XXSP,2013-08-04 06:00:00,
2013-08-04 02:05:00,68.4,64.6,0.00,North,0,0.0,0.0,88,0.00,,,0.00,WUHU21623XXSP,2013-08-04 06:05:00,
2013-08-04 02:10:00,68.2,64.6,0.00,North,0,0.0,0.0,88,0.00,,,0.00,WUHU21623XXSP,2013-08-04 06:10:00,
2013-08-04 02:15:00,68.2,64.5,0.00,North,0,0.0,0.0,88,0.00,,,0.00,WUHU21623XXSP,2013-08-04 06:15:00,
2013-08-04 02:20:00,68.2,64.3,0.00,North,0,0.0,0.0,88,0.00,,,0.00,WUHU21623XXSP,2013-08-04 06:20:00,
2013-08-04 02:25:00,68.0,64.3,0.00,North,0,0.0,0.0,88,0.00,,,0.00,WUHU21623XXSP,2013-08-04 06:25:00,
2013-08-04 02:30:00,68.0,64.3,0.00,North,0,0.0,0.0,88,0.00,,,0.00,WUHU21623XXSP,2013-08-04 06:30:00,
2013-08-04 02:35:00,68.0,64.1,0.00,North,0,0.0,0.0,88,0.00,,,0.00,WUHU21623XXSP,2013-08-04 06:35:00,
2013-08-04 02:40:00,68.0,64.1,0.00,North,0,0.0,0.0,88,0.00,,,0.00,WUHU21623XXSP,2013-08-04 06:40:00,
2013-08-04 02:45:00,68.0,64.1,0.00,North,0,0.0,0.0,88,0.00,,,0.00,WUHU21623XXSP,2013-08-04 06:45:00,
2013-08-04 02:50:00,67.8,64.3,0.00,North,0,0.0,0.0,88,0.00,,,0.00,WUHU21623XXSP,2013-08-04 06:50:00,
2013-08-04 02:55:00,67.8,64.1,0.00,North,0,0.0,0.0,88,0.00,,,0.00,WUHU21623XXSP,2013-08-04 06:55:00,
2013-08-04 03:00:00,67.8,64.1,0.00,North,0,0.0,0.0,88,0.00,,,0.00,WUHU21623XXSP,2013-08-04 07:00:00,
2013-08-04 03:05:00,67.8,64.1,0.00,North,0,0.0,0.0,88,0.00,,,0.00,WUHU21623XXSP,2013-08-04 07:05:00,
2013-08-04 03:10:00,67.8,64.1,0.00,North,0,0.0,0.0,88,0.00,,,0.00,WUHU21623XXSP,2013-08-04 07:10:00,
2013-08-04 03:15:00,67.8,64.1,0.00,North,0,0.0,0.0,88,0.00,,,0.00,WUHU21623XXSP,2013-08-04 07:15:00,
2013-08-04 03:20:00,67.8,64.1,0.00,North,0,0.0,0.0,88,0.00,,,0.00,WUHU21623XXSP,2013-08-04 07:20:00,
2013-08-04 03:25:00,67.8,64.1,0.00,North,0,0.0,0.0,88,0.00,,,0.00,WUHU21623XXSP,2013-08-04 07:25:00,
2013-08-04 03:30:00,67.6,63.9,0.00,North,0,0.0,0.0,88,0.00,,,0.00,WUHU21623XXSP,2013-08-04 07:30:00,
2013-08-04 03:35:00,67.6,63.9,0.00,North,0,0.0,0.0,88,0.00,,,0.00,WUHU21623XXSP,2013-08-04 07:35:00,
2013-08-04 03:40:00,67.5,63.8,0.00,North,0,0.0,0.0,88,0.00,,,0.00,WUHU21623XXSP,2013-08-04 07:40:00,
2013-08-04 03:45:00,67.3,63.6,0.00,North,0,0.0,0.0,88,0.00,,,0.00,WUHU21623XXSP,2013-08-04 07:45:00,
2013-08-04 03:50:00,67.3,63.6,0.00,North,0,0.0,0.0,88,0.00,,,0.00,WUHU21623XXSP,2013-08-04 07:50:00,
2013-08-04 03:55:00,67.3,63.6,0.00,North,0,0.0,0.0,88,0.00,,,0.00,WUHU21623XXSP,2013-08-04 07:55:00,
2013-08-04 04:00:00,67.1,63.4,0.00,North,0,0.0,0.0,88,0.00,,,0.00,WUHU21623XXSP,2013-08-04 08:00:00,
2013-08-04 04:05:00,66.9,63.4,0.00,North,0,0.0,0.0,88,0.00,,,0.00,WUHU21623XXSP,2013-08-04 08:05:00,
2013-08-04 04:15:00,66.7,63.0,0.00,North,0,0.0,0.0,88,0.00,,,0.00,WUHU21623XXSP,2013-08-04 08:15:00,
2013-08-04 04:20:00,66.7,63.0,0.00,North,0,0.0,0.0,88,0.00,,,0.00,WUHU21623XXSP,2013-08-04 08:20:00,
2013-08-04 04:25:00,66.6,63.0,0.00,North,0,0.0,0.0,88,0.00,,,0.00,WUHU21623XXSP,2013-08-04 08:25:00,
2013-08-04 04:30:00,66.6,62.9,0.00,North,0,0.0,0.0,88,0.00,,,0.00,WUHU21623XXSP,2013-08-04 08:30:00,
2013-08-04 04:35:00,66.6,62.9,0.00,North,0,0.0,0.0,88,0.00,,,0.00,WUHU21623XXSP,2013-08-04 08:35:00,
2013-08-04 04:40:00,66.6,62.9,0.00,North,0,0.0,0.0,88,0.00,,,0.00,WUHU21623XXSP,2013-08-04 08:40:00,
2013-08-04 04:53:00,66.4,62.7,0.00,North,0,0.0,0.0,88,0.00,,,0.00,WUHU21623XXSP,2013-08-04 08:53:00,
2013-08-04 04:58:00,66.2,62.5,0.00,North,0,0.0,0.0,88,0.00,,,0.00,WUHU21623XXSP,2013-08-04 08:58:00,
2013-08-04 05:03:00,66.2,62.5,0.00,North,0,0.0,0.0,88,0.00,,,0.00,WUHU21623XXSP,2013-08-04 09:03:00,
2013-08-04 05:08:00,66.2,62.5,0.00,North,0,0.0,0.0,88,0.00,,,0.00,WUHU21623XXSP,2013-08-04 09:08:00,
2013-08-04 05:13:00,66.0,62.3,0.00,North,0,0.0,0.0,88,0.00,,,0.00,WUHU21623XXSP,2013-08-04 09:13:00,
2013-08-04 05:18:00,66.0,62.3,0.00,North,0,0.0,0.0,88,0.00,,,0.00,WUHU21623XXSP,2013-08-04 09:18:00,
2013-08-04 05:23:00,66.0,62.3,0.00,North,0,0.0,0.0,88,0.00,,,0.00,WUHU21623XXSP,2013-08-04 09:23:00,
2013-08-04 05:28:00,66.0,62.3,0.00,North,0,0.0,0.0,88,0.00,,,0.00,WUHU21623XXSP,2013-08-04 09:28:00,
2013-08-04 05:33:00,65.8,62.2,0.00,North,0,0.0,0.0,88,0.00,,,0.00,WUHU21623XXSP,2013-08-04 09:33:00,
2013-08-04 05:38:00,65.8,62.2,0.00,North,0,0.0,0.0,88,0.00,,,0.00,WUHU21623XXSP,2013-08-04 09:38:00,
2013-08-04 05:43:00,65.8,62.2,0.00,North,0,0.0,0.0,88,0.00,,,0.00,WUHU21623XXSP,2013-08-04 09:43:00,
2013-08-04 05:48:00,65.7,62.2,0.00,North,0,0.0,0.0,88,0.00,,,0.00,WUHU21623XXSP,2013-08-04 09:48:00,
2013-08-04 05:53:00,65.7,62.0,0.00,North,0,0.0,0.0,88,0.00,,,0.00,WUHU21623XXSP,2013-08-04 09:53:00,
2013-08-04 05:59:00,65.5,62.0,0.00,North,0,0.0,0.0,88,0.00,,,0.00,WUHU21623XXSP,2013-08-04 09:59:00,
2013-08-04 06:03:00,65.5,61.8,0.00,North,0,0.0,0.0,88,0.00,,,0.00,WUHU21623XXSP,2013-08-04 10:03:00,
2013-08-04 06:09:00,65.5,61.8,0.00,North,0,0.0,0.0,88,0.00,,,0.00,WUHU21623XXSP,2013-08-04 10:09:00,
2013-08-04 06:13:00,65.5,61.8,0.00,North,0,0.0,0.0,88,0.00,,,0.00,WUHU21623XXSP,2013-08-04 10:13:00,
2013-08-04 06:19:00,65.3,61.7,0.00,North,0,0.0,0.0,88,0.00,,,0.00,WUHU21623XXSP,2013-08-04 10:19:00,
2013-08-04 06:23:00,65.3,61.7,0.00,North,0,0.0,0.0,88,0.00,,,0.00,WUHU21623XXSP,2013-08-04 10:23:00,
2013-08-04 06:29:00,65.1,61.5,0.00,North,0,0.0,0.0,88,0.00,,,0.00,WUHU21623XXSP,2013-08-04 10:29:00,
2013-08-04 06:34:00,65.1,61.5,0.00,North,0,0.0,0.0,88,0.00,,,0.00,WUHU21623XXSP,2013-08-04 10:34:00,
2013-08-04 06:39:00,64.9,61.5,0.00,North,0,0.0,0.0,88,0.00,,,0.00,WUHU21623XXSP,2013-08-04 10:39:00,
2013-08-04 06:44:00,64.9,61.3,0.00,North,0,0.0,0.0,88,0.00,,,0.00,WUHU21623XXSP,2013-08-04 10:44:00,
2013-08-04 06:49:00,64.9,61.3,0.00,North,0,0.0,0.0,88,0.00,,,0.00,WUHU21623XXSP,2013-08-04 10:49:00,
2013-08-04 06:53:00,64.8,61.2,0.00,North,0,0.0,0.0,88,0.00,,,0.00,WUHU21623XXSP,2013-08-04 10:53:00,
2013-08-04 06:59:00,64.8,61.2,0.00,North,0,0.0,0.0,88,0.00,,,0.00,WUHU21623XXSP,2013-08-04 10:59:00,
2013-08-04 07:03:00,64.8,61.2,0.00,North,0,0.0,0.0,88,0.00,,,0.00,WUHU21623XXSP,2013-08-04 11:03:00,
2013-08-04 07:09:00,64.8,61.2,0.00,North,0,0.0,0.0,88,0.00,,,0.00,WUHU21623XXSP,2013-08-04 11:09:00,
2013-08-04 07:13:00,64.6,61.0,0.00,North,0,0.0,0.0,88,0.00,,,0.00,WUHU21623XXSP,2013-08-04 11:13:00,
2013-08-04 07:19:00,64.6,61.0,0.00,North,0,0.0,0.0,88,0.00,,,0.00,WUHU21623XXSP,2013-08-04 11:19:00,
2013-08-04 07:24:00,64.8,61.2,0.00,North,0,0.0,0.0,88,0.00,,,0.00,WUHU21623XXSP,2013-08-04 11:24:00,
2013-08-04 07:29:00,64.8,61.2,0.00,North,0,0.0,0.0,88,0.00,,,0.00,WUHU21623XXSP,2013-08-04 11:29:00,
2013-08-04 07:34:00,64.8,61.2,0.00,North,0,0.0,0.0,88,0.00,,,0.00,WUHU21623XXSP,2013-08-04 11:34:00,
2013-08-04 07:39:00,64.9,61.2,0.00,North,0,0.0,0.0,88,0.00,,,0.00,WUHU21623XXSP,2013-08-04 11:39:00,
2013-08-04 07:43:00,64.9,61.3,0.00,North,0,0.0,0.0,88,0.00,,,0.00,WUHU21623XXSP,2013-08-04 11:43:00,
2013-08-04 07:49:00,65.1,61.5,0.00,North,0,0.0,0.0,88,0.00,,,0.00,WUHU21623XXSP,2013-08-04 11:49:00,
2013-08-04 07:54:00,65.1,61.5,0.00,North,0,0.0,0.0,89,0.00,,,0.00,WUHU21623XXSP,2013-08-04 11:54:00,
2013-08-04 07:59:00,65.5,62.0,0.00,North,0,0.0,0.0,89,0.00,,,0.00,WUHU21623XXSP,2013-08-04 11:59:00,
2013-08-04 08:04:00,65.5,62.2,0.00,North,0,0.0,0.0,89,0.00,,,0.00,WUHU21623XXSP,2013-08-04 12:04:00,
2013-08-04 08:09:00,65.7,62.2,0.00,North,0,0.0,0.0,89,0.00,,,0.00,WUHU21623XXSP,2013-08-04 12:09:00,
2013-08-04 08:14:00,65.8,62.5,0.00,North,0,0.0,0.0,89,0.00,,,0.00,WUHU21623XXSP,2013-08-04 12:14:00,
2013-08-04 08:18:00,66.0,62.6,0.00,North,0,0.0,0.0,89,0.00,,,0.00,WUHU21623XXSP,2013-08-04 12:18:00,
2013-08-04 08:23:00,66.0,62.6,0.00,North,0,0.0,0.0,89,0.00,,,0.00,WUHU21623XXSP,2013-08-04 12:23:00,
2013-08-04 08:29:00,66.4,62.8,0.00,North,0,0.0,0.0,89,0.00,,,0.00,WUHU21623XXSP,2013-08-04 12:29:00,
2013-08-04 08:34:00,66.6,63.0,0.00,North,0,0.0,0.0,89,0.00,,,0.00,WUHU21623XXSP,2013-08-04 12:34:00,
2013-08-04 08:39:00,66.7,63.2,0.00,North,0,0.0,0.0,89,0.00,,,0.00,WUHU21623XXSP,2013-08-04 12:39:00,
2013-08-04 08:43:00,66.9,63.5,0.00,North,0,0.0,0.0,89,0.00,,,0.00,WUHU21623XXSP,2013-08-04 12:43:00,
2013-08-04 08:49:00,67.3,63.5,0.00,North,0,0.0,0.0,89,0.00,,,0.00,WUHU21623XXSP,2013-08-04 12:49:00,
2013-08-04 08:54:00,67.3,63.9,0.00,North,0,0.0,0.0,89,0.00,,,0.00,WUHU21623XXSP,2013-08-04 12:54:00,
2013-08-04 08:59:00,67.6,64.3,0.00,North,0,0.0,0.0,89,0.00,,,0.00,WUHU21623XXSP,2013-08-04 12:59:00,
2013-08-04 09:03:00,67.8,64.3,0.00,North,0,0.0,0.0,88,0.00,,,0.00,WUHU21623XXSP,2013-08-04 13:03:00,
2013-08-04 09:09:00,68.0,64.1,0.00,North,0,0.0,0.0,89,0.00,,,0.00,WUHU21623XXSP,2013-08-04 13:09:00,
2013-08-04 09:14:00,68.2,64.6,0.00,North,0,0.0,0.0,89,0.00,,,0.00,WUHU21623XXSP,2013-08-04 13:14:00,
2013-08-04 09:19:00,68.4,65.0,0.00,North,0,0.0,0.0,89,0.00,,,0.00,WUHU21623XXSP,2013-08-04 13:19:00,
2013-08-04 09:24:00,68.4,65.0,0.00,North,0,0.0,0.0,89,0.00,,,0.00,WUHU21623XXSP,2013-08-04 13:24:00,
2013-08-04 09:29:00,68.7,65.3,0.00,North,0,0.0,0.0,89,0.00,,,0.00,WUHU21623XXSP,2013-08-04 13:29:00,
2013-08-04 09:34:00,69.4,65.0,0.00,North,0,0.0,0.0,88,0.00,,,0.00,WUHU21623XXSP,2013-08-04 13:34:00,
2013-08-04 09:39:00,69.4,65.7,0.00,North,0,0.0,0.0,88,0.00,,,0.00,WUHU21623XXSP,2013-08-04 13:39:00,
2013-08-04 09:44:00,69.4,65.7,0.00,North,0,0.0,0.0,88,0.00,,,0.00,WUHU21623XXSP,2013-08-04 13:44:00,
2013-08-04 09:49:00,69.4,65.7,0.00,North,0,0.0,0.0,87,0.00,,,0.00,WUHU21623XXSP,2013-08-04 13:49:00,
2013-08-04 09:54:00,69.4,65.4,0.00,North,0,0.0,0.0,87,0.00,,,0.00,WUHU21623XXSP,2013-08-04 13:54:00,
2013-08-04 09:59:00,72.5,68.2,0.00,North,0,0.0,0.0,87,0.00,,,0.00,WUHU21623XXSP,2013-08-04 13:59:00,
2013-08-04 10:04:00,72.5,68.4,0.00,North,0,0.0,0.0,87,0.00,,,0.00,WUHU21623XXSP,2013-08-04 14:04:00,
2013-08-04 10:09:00,73.2,67.0,0.00,North,0,0.0,0.0,83,0.00,,,0.00,WUHU21623XXSP,2013-08-04 14:09:00,
2013-08-04 10:14:00,73.9,67.8,0.00,North,0,0.0,0.0,83,0.00,,,0.00,WUHU21623XXSP,2013-08-04 14:14:00,
2013-08-04 10:19:00,74.1,67.6,0.00,North,0,0.0,0.0,80,0.00,,,0.00,WUHU21623XXSP,2013-08-04 14:19:00,
2013-08-04 10:24:00,74.1,67.6,0.00,North,0,0.0,0.0,80,0.00,,,0.00,WUHU21623XXSP,2013-08-04 14:24:00,
2013-08-04 10:29:00,74.1,66.9,0.00,North,0,0.0,0.0,78,0.00,,,0.00,WUHU21623XXSP,2013-08-04 14:29:00,
2013-08-04 10:34:00,75.2,66.5,0.00,North,0,0.0,0.0,77,0.00,,,0.00,WUHU21623XXSP,2013-08-04 14:34:00,
2013-08-04 10:44:00,75.7,66.5,0.00,North,0,0.0,0.0,73,0.00,,,0.00,WUHU21623XXSP,2013-08-04 14:44:00,
2013-08-04 10:49:00,75.7,66.5,0.00,North,0,0.0,0.0,73,0.00,,,0.00,WUHU21623XXSP,2013-08-04 14:49:00,
2013-08-04 10:54:00,75.7,66.5,0.00,North,0,0.0,0.0,73,0.00,,,0.00,WUHU21623XXSP,2013-08-04 14:54:00,
2013-08-04 10:59:00,75.7,66.5,0.00,North,0,0.0,0.0,73,0.00,,,0.00,WUHU21623XXSP,2013-08-04 14:59:00,
2013-08-04 11:04:00,75.7,66.5,0.00,North,0,0.0,0.0,73,0.00,,,0.00,WUHU21623XXSP,2013-08-04 15:04:00,
2013-08-04 11:09:00,75.7,66.5,0.00,North,0,0.0,0.0,73,0.00,,,0.00,WUHU21623XXSP,2013-08-04 15:09:00,
2013-08-04 11:27:00,75.6,65.5,0.00,North,0,0.0,0.0,69,0.00,,,0.00,WUHU21623XXSP,2013-08-04 15:27:00,
2013-08-04 11:32:00,75.6,64.7,0.00,North,0,0.0,0.0,69,0.00,,,0.00,WUHU21623XXSP,2013-08-04 15:32:00,
2013-08-04 11:37:00,75.6,63.8,0.00,North,0,0.0,0.0,67,0.00,,,0.00,WUHU21623XXSP,2013-08-04 15:37:00,
2013-08-04 11:42:00,75.9,64.1,0.00,North,0,0.0,0.0,67,0.00,,,0.00,WUHU21623XXSP,2013-08-04 15:42:00,
2013-08-04 11:47:00,75.9,64.1,0.00,North,0,0.0,0.0,67,0.00,,,0.00,WUHU21623XXSP,2013-08-04 15:47:00,
2013-08-04 11:52:00,76.1,64.3,0.00,North,0,0.0,0.0,67,0.00,,,0.00,WUHU21623XXSP,2013-08-04 15:52:00,
2013-08-04 11:57:00,76.1,64.3,0.00,North,0,0.0,0.0,67,0.00,,,0.00,WUHU21623XXSP,2013-08-04 15:57:00,
2013-08-04 12:02:00,76.1,64.3,0.00,North,0,0.0,0.0,67,0.00,,,0.00,WUHU21623XXSP,2013-08-04 16:02:00,
2013-08-04 12:07:00,76.1,64.3,0.00,North,0,0.0,0.0,67,0.00,,,0.00,WUHU21623XXSP,2013-08-04 16:07:00,
2013-08-04 12:27:00,75.9,63.7,0.00,North,0,0.0,0.0,66,0.00,,,0.00,WUHU21623XXSP,2013-08-04 16:27:00,
2013-08-04 12:32:00,76.3,63.7,0.00,North,0,0.0,0.0,66,0.00,,,0.00,WUHU21623XXSP,2013-08-04 16:32:00,
2013-08-04 12:36:00,76.3,62.7,0.00,North,0,0.0,0.0,63,0.00,,,0.00,WUHU21623XXSP,2013-08-04 16:36:00,
2013-08-04 12:45:00,76.3,62.7,0.00,North,0,0.0,0.0,63,0.00,,,0.00,WUHU21623XXSP,2013-08-04 16:45:00,
2013-08-04 12:59:00,76.3,62.3,0.00,North,0,0.0,0.0,62,0.00,,,0.00,WUHU21623XXSP,2013-08-04 16:59:00,
2013-08-04 13:04:00,76.3,62.3,0.00,North,0,0.0,0.0,62,0.00,,,0.00,WUHU21623XXSP,2013-08-04 17:04:00,
2013-08-04 13:09:00,76.3,62.3,0.00,North,0,0.0,0.0,61,0.00,,,0.00,WUHU21623XXSP,2013-08-04 17:09:00,
2013-08-04 13:14:00,76.3,61.8,0.00,North,0,0.0,0.0,61,0.00,,,0.00,WUHU21623XXSP,2013-08-04 17:14:00,
2013-08-04 13:19:00,76.5,62.0,0.00,North,0,0.0,0.0,61,0.00,,,0.00,WUHU21623XXSP,2013-08-04 17:19:00,
2013-08-04 13:24:00,76.3,62.0,0.00,North,0,0.0,0.0,61,0.00,,,0.00,WUHU21623XXSP,2013-08-04 17:24:00,
2013-08-04 13:29:00,76.3,61.8,0.00,North,0,0.0,0.0,62,0.00,,,0.00,WUHU21623XXSP,2013-08-04 17:29:00,
2013-08-04 13:34:00,76.3,62.6,0.00,North,0,0.0,0.0,63,0.00,,,0.00,WUHU21623XXSP,2013-08-04 17:34:00,
2013-08-04 13:39:00,76.3,62.7,0.00,North,0,0.0,0.0,63,0.00,,,0.00,WUHU21623XXSP,2013-08-04 17:39:00,
2013-08-04 13:44:00,76.3,63.2,0.00,North,0,0.0,0.0,64,0.00,,,0.00,WUHU21623XXSP,2013-08-04 17:44:00,
2013-08-04 13:49:00,76.6,63.3,0.00,North,0,0.0,0.0,64,0.00,,,0.00,WUHU21623XXSP,2013-08-04 17:49:00,
2013-08-04 13:54:00,76.5,63.1,0.00,North,0,0.0,0.0,63,0.00,,,0.00,WUHU21623XXSP,2013-08-04 17:54:00,
2013-08-04 13:59:00,76.3,62.9,0.00,North,0,0.0,0.0,64,0.00,,,0.00,WUHU21623XXSP,2013-08-04 17:59:00,
2013-08-04 14:04:00,76.3,63.2,0.00,North,0,0.0,0.0,64,0.00,,,0.00,WUHU21623XXSP,2013-08-04 18:04:00,
2013-08-04 14:09:00,76.3,62.7,0.00,North,0,0.0,0.0,63,0.00,,,0.00,WUHU21623XXSP,2013-08-04 18:09:00,
2013-08-04 14:14:00,76.6,63.1,0.00,North,0,0.0,0.0,62,0.00,,,0.00,WUHU21623XXSP,2013-08-04 18:14:00,
2013-08-04 14:19:00,76.6,62.6,0.00,North,0,0.0,0.0,62,0.00,,,0.00,WUHU21623XXSP,2013-08-04 18:19:00,
2013-08-04 14:24:00,76.8,62.6,0.00,North,0,0.0,0.0,61,0.00,,,0.00,WUHU21623XXSP,2013-08-04 18:24:00,
2013-08-04 14:29:00,76.8,62.3,0.00,North,0,0.0,0.0,61,0.00,,,0.00,WUHU21623XXSP,2013-08-04 18:29:00,
2013-08-04 14:34:00,76.8,62.3,0.00,North,0,0.0,0.0,61,0.00,,,0.00,WUHU21623XXSP,2013-08-04 18:34:00,
2013-08-04 14:45:00,76.8,62.3,0.00,North,0,0.0,0.0,61,0.00,,,0.00,WUHU21623XXSP,2013-08-04 18:45:00,
2013-08-04 14:50:00,77.0,62.5,0.00,North,0,0.0,0.0,61,0.00,,,0.00,WUHU21623XXSP,2013-08-04 18:50:00,
2013-08-04 15:00:00,77.2,63.1,0.00,North,0,0.0,0.0,62,0.00,,,0.00,WUHU21623XXSP,2013-08-04 19:00:00,
2013-08-04 15:05:00,77.2,63.1,0.00,North,0,0.0,0.0,62,0.00,,,0.00,WUHU21623XXSP,2013-08-04 19:05:00,
2013-08-04 15:10:00,77.2,63.1,0.00,North,0,0.0,0.0,62,0.00,,,0.00,WUHU21623XXSP,2013-08-04 19:10:00,
2013-08-04 15:15:00,76.8,62.8,0.00,North,0,0.0,0.0,62,0.00,,,0.00,WUHU21623XXSP,2013-08-04 19:15:00,
2013-08-04 15:20:00,76.8,62.8,0.00,North,0,0.0,0.0,62,0.00,,,0.00,WUHU21623XXSP,2013-08-04 19:20:00,
2013-08-04 15:25:00,76.8,62.8,0.00,North,0,0.0,0.0,62,0.00,,,0.00,WUHU21623XXSP,2013-08-04 19:25:00,
2013-08-04 15:30:00,76.8,62.8,0.00,North,0,0.0,0.0,61,0.00,,,0.00,WUHU21623XXSP,2013-08-04 19:30:00,
2013-08-04 15:35:00,76.8,62.3,0.00,North,0,0.0,0.0,61,0.00,,,0.00,WUHU21623XXSP,2013-08-04 19:35:00,
2013-08-04 15:40:00,76.8,62.3,0.00,North,0,0.0,0.0,61,0.00,,,0.00,WUHU21623XXSP,2013-08-04 19:40:00,
2013-08-04 15:45:00,76.8,62.3,0.00,North,0,0.0,0.0,61,0.00,,,0.00,WUHU21623XXSP,2013-08-04 19:45:00,
2013-08-04 15:50:00,76.8,62.3,0.00,North,0,0.0,0.0,61,0.00,,,0.00,WUHU21623XXSP,2013-08-04 19:50:00,
2013-08-04 15:55:00,76.8,62.3,0.00,North,0,0.0,0.0,61,0.00,,,0.00,WUHU21623XXSP,2013-08-04 19:55:00,
2013-08-04 16:00:00,76.8,62.3,0.00,North,0,0.0,0.0,61,0.00,,,0.00,WUHU21623XXSP,2013-08-04 20:00:00,
2013-08-04 16:05:00,76.8,62.3,0.00,North,0,0.0,0.0,61,0.00,,,0.00,WUHU21623XXSP,2013-08-04 20:05:00,
2013-08-04 16:10:00,76.8,62.8,0.00,North,0,0.0,0.0,62,0.00,,,0.00,WUHU21623XXSP,2013-08-04 20:10:00,
2013-08-04 16:15:00,76.8,62.8,0.00,North,0,0.0,0.0,62,0.00,,,0.00,WUHU21623XXSP,2013-08-04 20:15:00,
2013-08-04 16:20:00,76.8,62.8,0.00,North,0,0.0,0.0,62,0.00,,,0.00,WUHU21623XXSP,2013-08-04 20:20:00,
2013-08-04 16:25:00,76.8,62.8,0.00,North,0,0.0,0.0,62,0.00,,,0.00,WUHU21623XXSP,2013-08-04 20:25:00,
2013-08-04 16:30:00,76.8,62.8,0.00,North,0,0.0,0.0,62,0.00,,,0.00,WUHU21623XXSP,2013-08-04 20:30:00,
2013-08-04 16:41:00,76.8,62.8,0.00,North,0,0.0,0.0,62,0.00,,,0.00,WUHU21623XXSP,2013-08-04 20:41:00,
2013-08-04 16:46:00,77.0,62.3,0.00,North,0,0.0,0.0,61,0.00,,,0.00,WUHU21623XXSP,2013-08-04 20:46:00,
2013-08-04 16:51:00,77.2,62.7,0.00,North,0,0.0,0.0,61,0.00,,,0.00,WUHU21623XXSP,2013-08-04 20:51:00,
2013-08-04 16:56:00,77.2,62.7,0.00,North,0,0.0,0.0,61,0.00,,,0.00,WUHU21623XXSP,2013-08-04 20:56:00,
2013-08-04 17:01:00,76.8,62.3,0.00,North,0,0.0,0.0,61,0.00,,,0.00,WUHU21623XXSP,2013-08-04 21:01:00,
2013-08-04 17:06:00,76.8,62.3,0.00,North,0,0.0,0.0,62,0.00,,,0.00,WUHU21623XXSP,2013-08-04 21:06:00,
2013-08-04 17:11:00,76.8,62.8,0.00,North,0,0.0,0.0,62,0.00,,,0.00,WUHU21623XXSP,2013-08-04 21:11:00,
2013-08-04 17:15:00,76.6,62.8,0.00,North,0,0.0,0.0,62,0.00,,,0.00,WUHU21623XXSP,2013-08-04 21:15:00,
2013-08-04 17:20:00,76.6,62.6,0.00,North,0,0.0,0.0,62,0.00,,,0.00,WUHU21623XXSP,2013-08-04 21:20:00,
2013-08-04 17:26:00,76.6,62.6,0.00,North,0,0.0,0.0,62,0.00,,,0.00,WUHU21623XXSP,2013-08-04 21:26:00,
2013-08-04 17:31:00,76.6,62.6,0.00,North,0,0.0,0.0,62,0.00,,,0.00,WUHU21623XXSP,2013-08-04 21:31:00,
2013-08-04 17:36:00,76.8,62.3,0.00,North,0,0.0,0.0,61,0.00,,,0.00,WUHU21623XXSP,2013-08-04 21:36:00,
2013-08-04 17:41:00,76.8,62.3,0.00,North,0,0.0,0.0,61,0.00,,,0.00,WUHU21623XXSP,2013-08-04 21:41:00,
2013-08-04 17:46:00,76.8,62.3,0.00,North,0,0.0,0.0,61,0.00,,,0.00,WUHU21623XXSP,2013-08-04 21:46:00,
2013-08-04 17:51:00,76.8,62.3,0.00,North,0,0.0,0.0,61,0.00,,,0.00,WUHU21623XXSP,2013-08-04 21:51:00,
2013-08-04 17:56:00,76.8,62.3,0.00,North,0,0.0,0.0,61,0.00,,,0.00,WUHU21623XXSP,2013-08-04 21:56:00,
2013-08-04 18:01:00,76.8,62.3,0.00,North,0,0.0,0.0,61,0.00,,,0.00,WUHU21623XXSP,2013-08-04 22:01:00,
2013-08-04 21:00:00,70.7,61.2,0.00,North,0,0.0,0.0,72,0.00,,,0.00,WUHU21623XXSP,2013-08-05 01:00:00,
2013-08-04 21:05:00,70.2,60.8,0.00,North,0,0.0,0.0,73,0.00,,,0.00,WUHU21623XXSP,2013-08-05 01:05:00,
2013-08-04 21:10:00,70.0,60.9,0.00,North,0,0.0,0.0,73,0.00,,,0.00,WUHU21623XXSP,2013-08-05 01:10:00,
2013-08-04 21:15:00,69.8,60.7,0.00,North,0,0.0,0.0,73,0.00,,,0.00,WUHU21623XXSP,2013-08-05 01:15:00,
2013-08-04 21:20:00,69.8,60.7,0.00,North,0,0.0,0.0,73,0.00,,,0.00,WUHU21623XXSP,2013-08-05 01:20:00,
2013-08-04 21:25:00,69.8,60.7,0.00,North,0,0.0,0.0,73,0.00,,,0.00,WUHU21623XXSP,2013-08-05 01:25:00,
2013-08-04 21:30:00,69.8,60.7,0.00,North,0,0.0,0.0,73,0.00,,,0.00,WUHU21623XXSP,2013-08-05 01:30:00,
2013-08-04 21:44:00,68.9,60.2,0.00,North,0,0.0,0.0,74,0.00,,,0.00,WUHU21623XXSP,2013-08-05 01:44:00,
2013-08-04 21:49:00,68.5,60.5,0.00,North,0,0.0,0.0,75,0.00,,,0.00,WUHU21623XXSP,2013-08-05 01:49:00,
2013-08-04 21:54:00,68.4,60.3,0.00,North,0,0.0,0.0,75,0.00,,,0.00,WUHU21623XXSP,2013-08-05 01:54:00,
2013-08-04 21:59:00,68.2,60.1,0.00,North,0,0.0,0.0,75,0.00,,,0.00,WUHU21623XXSP,2013-08-05 01:59:00,
2013-08-04 22:04:00,67.8,59.8,0.00,North,0,0.0,0.0,75,0.00,,,0.00,WUHU21623XXSP,2013-08-05 02:04:00,
2013-08-04 22:09:00,67.8,59.6,0.00,North,0,0.0,0.0,75,0.00,,,0.00,WUHU21623XXSP,2013-08-05 02:09:00,
2013-08-04 22:14:00,67.6,59.5,0.00,North,0,0.0,0.0,75,0.00,,,0.00,WUHU21623XXSP,2013-08-05 02:14:00,
2013-08-04 22:19:00,67.3,59.6,0.00,North,0,0.0,0.0,76,0.00,,,0.00,WUHU21623XXSP,2013-08-05 02:19:00,
2013-08-04 22:24:00,67.1,59.5,0.00,North,0,0.0,0.0,76,0.00,,,0.00,WUHU21623XXSP,2013-08-05 02:24:00,
2013-08-04 22:29:00,66.9,59.3,0.00,North,0,0.0,0.0,76,0.00,,,0.00,WUHU21623XXSP,2013-08-05 02:29:00,
2013-08-04 22:34:00,66.9,59.1,0.00,North,0,0.0,0.0,76,0.00,,,0.00,WUHU21623XXSP,2013-08-05 02:34:00,
2013-08-04 22:39:00,66.7,58.9,0.00,North,0,0.0,0.0,76,0.00,,,0.00,WUHU21623XXSP,2013-08-05 02:39:00,
2013-08-04 22:44:00,66.7,58.9,0.00,North,0,0.0,0.0,76,0.00,,,0.00,WUHU21623XXSP,2013-08-05 02:44:00,
2013-08-04 22:49:00,66.6,59.1,0.00,North,0,0.0,0.0,77,0.00,,,0.00,WUHU21623XXSP,2013-08-05 02:49:00,
2013-08-04 22:54:00,66.2,59.1,0.00,North,0,0.0,0.0,77,0.00,,,0.00,WUHU21623XXSP,2013-08-05 02:54:00,
2013-08-04 22:59:00,66.0,58.8,0.00,North,0,0.0,0.0,77,0.00,,,0.00,WUHU21623XXSP,2013-08-05 02:59:00,
2013-08-04 23:04:00,65.8,58.4,0.00,North,0,0.0,0.0,77,0.00,,,0.00,WUHU21623XXSP,2013-08-05 03:04:00,
2013-08-04 23:09:00,65.7,58.6,0.00,North,0,0.0,0.0,78,0.00,,,0.00,WUHU21623XXSP,2013-08-05 03:09:00,
2013-08-04 23:14:00,65.5,58.4,0.00,North,0,0.0,0.0,78,0.00,,,0.00,WUHU21623XXSP,2013-08-05 03:14:00,
2013-08-04 23:19:00,65.3,58.3,0.00,North,0,0.0,0.0,79,0.00,,,0.00,WUHU21623XXSP,2013-08-05 03:19:00,
2013-08-04 23:24:00,65.1,58.6,0.00,North,0,0.0,0.0,79,0.00,,,0.00,WUHU21623XXSP,2013-08-05 03:24:00,
2013-08-04 23:29:00,65.1,58.4,0.00,North,0,0.0,0.0,79,0.00,,,0.00,WUHU21623XXSP,2013-08-05 03:29:00,
2013-08-04 23:34:00,64.9,58.3,0.00,North,0,0.0,0.0,79,0.00,,,0.00,WUHU21623XXSP,2013-08-05 03:34:00,
2013-08-04 23:39:00,64.9,58.3,0.00,North,0,0.0,0.0,79,0.00,,,0.00,WUHU21623XXSP,2013-08-05 03:39:00,
2013-08-04 23:44:00,64.8,58.5,0.00,North,0,0.0,0.0,80,0.00,,,0.00,WUHU21623XXSP,2013-08-05 03:44:00,
2013-08-04 23:49:00,64.8,58.5,0.00,North,0,0.0,0.0,80,0.00,,,0.00,WUHU21623XXSP,2013-08-05 03:49:00,
2013-08-04 23:54:00,64.8,58.5,0.00,North,0,0.0,0.0,80,0.00,,,0.00,WUHU21623XXSP,2013-08-05 03:54:00,
2013-08-04 23:59:00,64.2,58.5,0.00,North,0,0.0,0.0,80,0.00,,,0.00,WUHU21623XXSP,2013-08-05 03:59:00,